sat.trackr.live / text

‹ back to catalog

STARLINK-30588

NORAD 58062 · 2023-158M

PAYLOAD ACTIVE UNKNOWN

§ Identity

Operator
Country
US
Launch date
2023-10-13
Launch site
AFETR
Launch vehicle
Mass (kg)
RCS (m²)

Purposes: comms

External: N2YO · Heavens-Above · Gunter

§ Orbital elements

Epoch: 2026-05-24T19:42:28.043424Z

Period
94.27 min
Inclination
43.0020°
Eccentricity
0.0001288
Mean motion
15.27577349 rev/d
Perigee alt
482.2 km
Apogee alt
483.9 km
Semi-major
6,861.2 km
B*
2.6514e-5
RAAN
317.0636°
Arg perigee
265.9842°
Mean anomaly
94.0863°
Rev number
14,521

§ Raw data

STARLINK-305881 58062U 23158M   26144.82115791  .00000467  00000+0  26514-4 0  99992 58062  43.0020 317.0636 0001288 265.9842  94.0863 15.27577349145216

JSON: /api/v1/satellites/58062 · /tle

For live sub-satellite position, see the globe view (requires WebGL).

§ Visibility from observer

Set your observer location to see the next 7 days of passes ≥ 10°. The values pass through the URL so the page stays shareable.

No JS? Fill the form by hand. The geolocation button needs JavaScript.